DW5167 Weather Reports


time (UTC)temp
C
wind
direction
speed
KPH
gust
KPH
rain 1hr
cm
rain 24hr
cm
rain mn
cm
humidity
%
barometer
mb
20260504151053 25 302 11.3 22.5 0.00 0.00 0.00 56 1018.1
20260504150553 25 11 8.0 27.4 0.00 0.00 0.00 60 1018.0
20260504141051 23 30 9.7 22.5 0.00 0.00 0.00 63 1017.8
20260504140551 23 40 11.3 22.5 0.00 0.00 0.00 62 1017.8
20260504130552 22 53 6.4 16.1 0.00 0.00 0.00 71 1017.6
20260504120106 18 43 0.0 8.0 0.00 0.00 0.00 83 1017.2
20260504110555 16 0 0.0 1.6 0.00 0.00 0.00 88 1016.6
20260504100554 17 0 0.0 9.7 0.00 0.00 0.00 87 1016.3
20260504090105 17 0 0.0 1.6 0.00 0.00 0.00 87 1016.1
20260504081555 18 0 0.0 4.8 0.00 0.00 0.00 85 1016.2
20260504081051 18 22 0.0 4.8 0.00 0.00 0.00 85 1016.3
20260504080551 18 0 0.0 3.2 0.00 0.00 0.00 85 1016.3
20260504050551 19 0 0.0 1.6 0.00 0.00 0.00 80 1017.7
20260504045555 19 0 0.0 0.0 0.00 0.00 0.00 80 1017.8
20260504045051 19 0 0.0 0.0 0.00 0.00 0.00 80 1017.8
20260504044605 19 0 0.0 1.6 0.00 0.00 0.00 80 1017.8
20260504044052 19 0 0.0 1.6 0.00 0.00 0.00 80 1017.9
20260504043552 19 0 0.0 0.0 0.00 0.00 0.00 80 1017.9
20260504043101 19 0 0.0 0.0 0.00 0.00 0.00 79 1017.9
20260504042552 19 0 0.0 0.0 0.00 0.00 0.00 79 1018.0
20260504042052 20 0 0.0 1.6 0.00 0.00 0.00 79 1017.9
20260504041559 20 0 0.0 1.6 0.00 0.00 0.00 79 1018.0
20260504041052 20 31 0.0 4.8 0.00 0.00 0.00 78 1017.9
20260504040551 20 0 0.0 4.8 0.00 0.00 0.00 78 1018.0
20260504040113 20 0 0.0 4.8 0.00 0.00 0.00 78 1018.0
20260504035554 20 0 0.0 1.6 0.00 0.00 0.00 78 1018.0
20260504035051 20 0 0.0 1.6 0.00 0.00 0.00 78 1018.0
20260504034607 20 0 0.0 1.6 0.00 0.00 0.00 77 1018.0
20260504034048 20 0 0.0 1.6 0.00 0.00 0.00 77 1018.0
20260504033553 20 0 0.0 3.2 0.00 0.00 0.00 77 1018.1
20260504033058 20 70 0.0 4.8 0.00 0.00 0.00 77 1018.1
20260504032551 20 0 0.0 4.8 0.00 0.00 0.00 77 1017.9
20260504032051 20 0 0.0 1.6 0.00 0.00 0.00 77 1018.0
20260504031552 20 0 0.0 1.6 0.00 0.00 0.00 77 1018.0
20260504031051 20 0 0.0 1.6 0.00 0.00 0.00 77 1018.0
20260504030550 20 0 0.0 0.0 0.00 0.00 0.00 77 1018.1
20260504030059 20 0 0.0 4.8 0.00 0.00 0.00 77 1018.1
20260504025554 20 0 0.0 4.8 0.00 0.00 0.00 76 1018.1
20260504025051 20 0 0.0 1.6 0.00 0.00 0.00 76 1018.0
20260504024555 20 0 0.0 4.8 0.00 0.00 0.00 76 1018.0
20260504024051 20 0 0.0 6.4 0.00 0.00 0.00 76 1018.0
20260504023551 20 98 0.0 8.0 0.00 0.00 0.00 76 1017.9
20260504023053 20 46 1.6 8.0 0.00 0.00 0.00 76 1017.7
20260504022552 20 73 0.0 4.8 0.00 0.00 0.00 76 1017.7
20260504022052 20 0 0.0 4.8 0.00 0.00 0.00 76 1017.8
20260504021553 20 0 0.0 6.4 0.00 0.00 0.00 76 1017.8
20260504021051 20 0 0.0 8.0 0.00 0.00 0.00 76 1017.7
20260504020553 20 0 0.0 8.0 0.00 0.00 0.00 76 1017.8
20260504020052 20 0 1.6 8.0 0.00 0.00 0.00 76 1017.6
20260504015552 20 71 1.6 8.0 0.00 0.00 0.00 76 1017.5
20260504015052 20 63 1.6 8.0 0.00 0.00 0.00 76 1017.2
20260504014555 20 65 1.6 8.0 0.00 0.00 0.00 76 1017.3
20260504014052 20 0 1.6 8.0 0.00 0.00 0.00 76 1017.3
20260504013551 20 78 1.6 9.7 0.00 0.00 0.00 75 1017.2
20260504013108 21 70 4.8 9.7 0.00 0.00 0.00 75 1017.3
20260504012551 21 97 3.2 9.7 0.00 0.00 0.00 75 1017.3
20260504012051 21 63 3.2 9.7 0.00 0.00 0.00 75 1017.3
20260504011556 21 63 1.6 12.9 0.00 0.00 0.00 74 1017.2
20260504011051 21 0 4.8 12.9 0.00 0.00 0.00 74 1017.3
20260504010552 21 85 1.6 11.3 0.00 0.00 0.00 74 1017.2
20260504010101 21 77 6.4 11.3 0.00 0.00 0.00 74 1017.2
20260504005552 21 0 1.6 9.7 0.00 0.00 0.00 74 1017.2
20260504005052 21 65 4.8 12.9 0.00 0.00 0.00 74 1017.0
20260504004610 21 64 4.8 14.5 0.00 0.00 0.00 74 1016.9
20260504004051 21 72 6.4 16.1 0.00 0.00 0.00 74 1016.9
20260504003551 21 58 4.8 16.1 0.00 0.00 0.00 73 1016.9
20260504003055 21 63 8.0 16.1 0.00 0.00 0.00 73 1016.8
20260504002551 21 62 4.8 12.9 0.00 0.00 0.00 73 1016.7
20260504002051 21 64 6.4 12.9 0.00 0.00 0.00 72 1016.7
20260504001555 21 0 1.6 11.3 0.00 0.00 0.00 72 1016.6
20260504001051 21 0 3.2 12.9 0.00 0.00 0.00 72 1016.6
20260504000551 22 110 6.4 17.7 0.00 0.00 0.00 71 1016.6
20260504000114 22 71 4.8 17.7 0.00 0.00 0.00 71 1016.4
20260503235551 22 80 6.4 12.9 0.00 0.00 0.00 71 1016.3
20260503235051 22 71 6.4 17.7 0.00 0.00 0.00 71 1016.2
20260503234554 22 91 8.0 17.7 0.00 0.00 0.00 71 1016.2
20260503234052 22 86 3.2 16.1 0.00 0.00 0.00 70 1016.2
20260503233552 22 68 6.4 19.3 0.00 0.00 0.00 70 1016.3
20260503233055 22 75 4.8 19.3 0.00 0.00 0.00 69 1016.1
20260503232553 22 68 8.0 14.5 0.00 0.00 0.00 69 1016.2
20260503232051 22 69 8.0 14.5 0.00 0.00 0.00 69 1016.2
20260503231554 22 98 3.2 12.9 0.00 0.00 0.00 69 1016.0
20260503231052 23 59 4.8 16.1 0.00 0.00 0.00 68 1016.1
20260503230551 23 34 6.4 16.1 0.00 0.00 0.00 68 1016.1
20260503230056 23 75 8.0 16.1 0.00 0.00 0.00 67 1016.2
20260503225551 23 44 9.7 20.9 0.00 0.00 0.00 68 1016.1
20260503225051 23 89 8.0 20.9 0.00 0.00 0.00 67 1016.1
20260503224555 23 89 9.7 19.3 0.00 0.00 0.00 67 1016.0
20260503224051 23 75 11.3 19.3 0.00 0.00 0.00 66 1016.2
20260503223551 23 10 8.0 14.5 0.00 0.00 0.00 66 1016.1
20260503223054 24 76 6.4 19.3 0.00 0.00 0.00 66 1016.0
20260503222552 24 79 8.0 19.3 0.00 0.00 0.00 66 1016.0
20260503222051 24 63 8.0 19.3 0.00 0.00 0.00 66 1016.0
20260503221559 24 90 6.4 19.3 0.00 0.00 0.00 66 1016.0
20260503221052 24 58 9.7 19.3 0.00 0.00 0.00 65 1016.0
20260503220552 24 109 9.7 17.7 0.00 0.00 0.00 66 1015.9
20260503220109 24 68 8.0 14.5 0.00 0.00 0.00 65 1016.0
20260503215551 25 101 4.8 11.3 0.00 0.00 0.00 65 1016.0
20260503215051 24 94 4.8 17.7 0.00 0.00 0.00 66 1015.9
20260503214555 24 75 6.4 17.7 0.00 0.00 0.00 66 1016.0
20260503214052 24 49 6.4 16.1 0.00 0.00 0.00 66 1015.9
20260503213551 24 74 8.0 16.1 0.00 0.00 0.00 64 1015.9
20260503213100 24 117 6.4 16.1 0.00 0.00 0.00 65 1016.0
20260503212551 24 60 6.4 16.1 0.00 0.00 0.00 64 1016.0
20260503212052 24 68 1.6 14.5 0.00 0.00 0.00 63 1016.0
20260503211556 24 83 4.8 14.5 0.00 0.00 0.00 63 1015.9
20260503211052 25 113 8.0 14.5 0.00 0.00 0.00 62 1016.0
20260503210552 25 58 8.0 14.5 0.00 0.00 0.00 62 1016.0
20260503210053 25 70 0.0 12.9 0.00 0.00 0.00 62 1016.1
20260503205552 24 105 3.2 12.9 0.00 0.00 0.00 62 1016.0
20260503205052 25 68 8.0 16.1 0.00 0.00 0.00 62 1016.0
20260503204554 25 104 9.7 16.1 0.00 0.00 0.00 62 1015.9
20260503204051 25 48 3.2 14.5 0.00 0.00 0.00 61 1016.0
20260503203551 25 73 1.6 14.5 0.00 0.00 0.00 62 1016.0
20260503203059 25 20 6.4 16.1 0.00 0.00 0.00 61 1016.2
20260503202553 25 28 8.0 16.1 0.00 0.00 0.00 61 1016.2
20260503202051 25 41 4.8 14.5 0.00 0.00 0.00 62 1016.1
20260503201555 25 60 6.4 14.5 0.00 0.00 0.00 62 1016.1
20260503201056 25 41 3.2 12.9 0.00 0.00 0.00 63 1016.1
20260503200551 24 36 4.8 12.9 0.00 0.00 0.00 62 1016.3
20260503200101 25 61 4.8 16.1 0.00 0.00 0.00 62 1016.5
20260503195551 25 27 8.0 16.1 0.00 0.00 0.00 60 1016.6
20260503195051 25 77 4.8 16.1 0.00 0.00 0.00 60 1016.5
20260503194556 25 20 3.2 12.9 0.00 0.00 0.00 62 1016.6
20260503194052 25 3 6.4 12.9 0.00 0.00 0.00 62 1016.8
20260503193552 25 32 3.2 12.9 0.00 0.00 0.00 61 1016.8
20260503193056 25 32 3.2 14.5 0.00 0.00 0.00 61 1016.9
20260503192551 25 0 6.4 14.5 0.00 0.00 0.00 61 1016.9
20260503192051 25 335 4.8 20.9 0.00 0.00 0.00 61 1017.1
20260503191556 25 49 6.4 20.9 0.00 0.00 0.00 61 1017.2
20260503191051 25 134 4.8 20.9 0.00 0.00 0.00 63 1017.2
20260503190552 25 0 3.2 17.7 0.00 0.00 0.00 64 1017.4
20260503190056 24 58 8.0 17.7 0.00 0.00 0.00 63 1017.4
20260503185551 25 89 6.4 17.7 0.00 0.00 0.00 63 1017.4
20260503185055 25 66 8.0 17.7 0.00 0.00 0.00 64 1017.5
20260503184604 25 20 6.4 20.9 0.00 0.00 0.00 64 1017.5
20260503184051 25 54 6.4 20.9 0.00 0.00 0.00 62 1017.7
20260503183553 25 65 4.8 16.1 0.00 0.00 0.00 64 1017.6
20260503183058 25 1 6.4 20.9 0.00 0.00 0.00 65 1017.7
20260503182554 25 42 8.0 20.9 0.00 0.00 0.00 65 1017.9
20260503182051 24 343 8.0 16.1 0.00 0.00 0.00 67 1017.9
20260503181602 24 81 6.4 16.1 0.00 0.00 0.00 65 1017.9
20260503181052 24 86 6.4 16.1 0.00 0.00 0.00 65 1018.0
20260503180552 24 70 4.8 16.1 0.00 0.00 0.00 69 1018.1
20260503180116 23 84 6.4 16.1 0.00 0.00 0.00 69 1018.2
20260503175551 23 65 4.8 12.9 0.00 0.00 0.00 69 1018.3
20260503175051 23 71 4.8 16.1 0.00 0.00 0.00 68 1018.3
20260503174556 23 349 8.0 19.3 0.00 0.00 0.00 69 1018.4
20260503174055 23 71 8.0 19.3 0.00 0.00 0.00 68 1018.3
20260503173551 23 15 9.7 17.7 0.00 0.00 0.00 69 1018.3
20260503173114 23 146 9.7 17.7 0.00 0.00 0.00 70 1018.3
20260503172552 23 21 6.4 19.3 0.00 0.00 0.00 71 1018.4
20260503172052 23 46 6.4 19.3 0.00 0.00 0.00 71 1018.4
20260503171604 23 108 9.7 17.7 0.00 0.00 0.00 72 1018.4
20260503171052 22 89 8.0 19.3 0.00 0.00 0.00 72 1018.5
20260503170552 22 25 8.0 19.3 0.00 0.00 0.00 72 1018.6
20260503170110 22 51 4.8 14.5 0.00 0.00 0.00 73 1018.6